TimeHST,TemperatureF,Dew PointF,Humidity,Sea Level PressureIn,VisibilityMPH,Wind Direction,Wind SpeedMPH,Gust SpeedMPH,PrecipitationIn,Events,Conditions,WindDirDegrees,DateUTC
12:54 AM,69.1,66.0,90,30.12,10.0,North,9.2,18.4,N/A,,Mostly Cloudy,10,2013-05-11 10:54:00
1:54 AM,69.1,66.9,93,30.10,10.0,NNE,10.4,-,N/A,,Overcast,30,2013-05-11 11:54:00
2:54 AM,68.0,66.0,93,30.08,10.0,NNE,4.6,-,N/A,,Mostly Cloudy,30,2013-05-11 12:54:00
3:39 AM,68.0,66.2,94,30.07,10.0,North,11.5,17.3,N/A,,Mostly Cloudy,360,2013-05-11 13:39:00
3:49 AM,68.0,66.2,94,30.07,10.0,North,10.4,-,N/A,,Mostly Cloudy,10,2013-05-11 13:49:00
3:54 AM,69.1,66.9,93,30.08,10.0,North,10.4,-,N/A,,Mostly Cloudy,10,2013-05-11 13:54:00
4:54 AM,69.1,66.0,90,30.08,10.0,North,8.1,-,N/A,,Overcast,10,2013-05-11 14:54:00
5:54 AM,68.0,66.0,93,30.09,10.0,North,10.4,17.3,0.00,Rain,Light Rain,10,2013-05-11 15:54:00
5:59 AM,68.0,66.2,94,30.08,10.0,North,8.1,17.3,0.00,Rain,Light Rain,10,2013-05-11 15:59:00
6:06 AM,68.0,66.2,94,30.08,10.0,NNE,9.2,16.1,0.00,Rain,Light Rain,20,2013-05-11 16:06:00
6:15 AM,68.0,66.2,94,30.09,10.0,North,11.5,18.4,0.00,Rain,Light Rain,10,2013-05-11 16:15:00
6:35 AM,69.8,66.2,88,30.10,10.0,NNE,9.2,-,0.00,Rain,Light Rain,20,2013-05-11 16:35:00
6:54 AM,69.8,66.9,91,30.12,10.0,NNE,12.7,21.9,0.00,Rain,Light Rain,20,2013-05-11 16:54:00
7:01 AM,-9999,-9999,N/A,30.10,8.0,NNE,10.4,19.6,0.00,Rain,Light Rain,20,2013-05-11 17:01:00
7:11 AM,-9999,-9999,N/A,30.10,4.0,North,12.7,20.7,0.00,Rain,Light Rain,10,2013-05-11 17:11:00
7:18 AM,69.8,66.2,88,30.10,8.0,NNE,11.5,-,0.00,Rain,Light Rain,20,2013-05-11 17:18:00
7:54 AM,69.8,66.9,91,30.12,8.0,North,9.2,19.6,0.01,Rain,Light Rain,10,2013-05-11 17:54:00
8:54 AM,-9999,-9999,N/A,30.12,7.0,NNE,11.5,20.7,0.00,Rain,Light Rain,30,2013-05-11 18:54:00
9:01 AM,71.6,68.0,88,30.12,5.0,NNE,10.4,17.3,0.00,Rain,Light Rain,20,2013-05-11 19:01:00
9:08 AM,71.6,68.0,88,30.12,6.0,NNE,10.4,19.6,0.00,Rain,Light Rain,20,2013-05-11 19:08:00
9:31 AM,71.6,68.0,88,30.11,10.0,NNE,12.7,20.7,0.00,Rain,Light Rain,30,2013-05-11 19:31:00
9:54 AM,71.6,68.0,88,30.13,10.0,NNE,11.5,21.9,0.00,Rain,Light Rain,20,2013-05-11 19:54:00
10:54 AM,75.9,64.9,69,30.12,10.0,NNE,15.0,23.0,0.00,,Scattered Clouds,20,2013-05-11 20:54:00
11:54 AM,75.9,64.0,67,30.11,10.0,NNE,17.3,23.0,N/A,,Scattered Clouds,30,2013-05-11 21:54:00
12:54 PM,77.0,63.0,62,30.09,10.0,NNE,13.8,25.3,N/A,,Scattered Clouds,30,2013-05-11 22:54:00
1:54 PM,77.0,64.0,64,30.08,10.0,NNE,15.0,25.3,N/A,,Mostly Cloudy,30,2013-05-11 23:54:00
2:54 PM,75.0,64.0,69,30.06,10.0,NNE,13.8,20.7,N/A,,Mostly Cloudy,20,2013-05-12 00:54:00
3:54 PM,75.9,64.0,67,30.06,10.0,NNE,13.8,21.9,N/A,,Mostly Cloudy,30,2013-05-12 01:54:00
4:54 PM,75.0,64.9,71,30.06,10.0,NNE,10.4,24.2,N/A,,Mostly Cloudy,20,2013-05-12 02:54:00
5:54 PM,72.0,64.9,78,30.07,10.0,NNE,12.7,18.4,N/A,,Mostly Cloudy,20,2013-05-12 03:54:00
6:24 PM,71.6,66.2,83,30.07,10.0,North,10.4,20.7,N/A,,Overcast,10,2013-05-12 04:24:00
6:54 PM,69.1,66.9,93,30.09,9.0,North,15.0,21.9,N/A,,Overcast,10,2013-05-12 04:54:00
7:04 PM,68.0,66.2,94,30.09,8.0,North,17.3,24.2,N/A,,Overcast,350,2013-05-12 05:04:00
7:13 PM,68.0,66.2,94,30.09,10.0,North,17.3,23.0,N/A,,Overcast,350,2013-05-12 05:13:00
7:54 PM,-9999,-9999,N/A,30.10,6.0,NNE,12.7,21.9,0.01,,Haze,30,2013-05-12 05:54:00
8:21 PM,-9999,-9999,N/A,30.11,7.0,NNE,9.2,20.7,N/A,,Overcast,20,2013-05-12 06:21:00
8:30 PM,-9999,-9999,N/A,30.11,7.0,NNE,10.4,21.9,N/A,,Overcast,20,2013-05-12 06:30:00
8:54 PM,-9999,-9999,N/A,30.11,7.0,North,12.7,21.9,N/A,,Overcast,10,2013-05-12 06:54:00
9:31 PM,-9999,-9999,N/A,30.12,8.0,NNE,12.7,20.7,N/A,,Overcast,20,2013-05-12 07:31:00
9:46 PM,-9999,-9999,N/A,30.12,7.0,NNE,13.8,23.0,N/A,,Overcast,20,2013-05-12 07:46:00
9:54 PM,-9999,-9999,N/A,30.12,7.0,NNE,12.7,26.5,N/A,,Overcast,20,2013-05-12 07:54:00
10:49 PM,-9999,-9999,N/A,30.12,5.0,North,11.5,21.9,0.01,,Haze,10,2013-05-12 08:49:00
10:54 PM,-9999,-9999,N/A,30.12,5.0,North,13.8,27.6,0.01,,Haze,10,2013-05-12 08:54:00
11:20 PM,-9999,-9999,N/A,30.12,4.0,NNE,15.0,26.5,0.01,,Haze,20,2013-05-12 09:20:00
11:50 PM,-9999,-9999,N/A,30.12,4.0,NNE,11.5,26.5,0.03,,Haze,20,2013-05-12 09:50:00
11:54 PM,-9999,-9999,N/A,30.12,4.0,NNE,12.7,21.9,0.03,,Haze,20,2013-05-12 09:54:00